Showing default

COSMOS 2337, 24725

Orbit data source: Space-Track

COSMOS 2337, 24725 is a payload satellite owned by VKS (CIS) in LEO that was launched on Fri, 14 Feb 1997 UTC via a TSIKLON-3 launch vehicle from the Plesetsk Missile And Space Complex (PKMTR). Payload-class satellites include a variety of spacecraft equipped with specific instruments for various scientific and technological missions. These include communications satellites like Starlink; space stations such as the ISS; scientific satellites like the Hubble; Earth observation satellites from companies like Planet Labs, Umbra, and HawkEye 360; GPS; miniature CubeSats for education and research; and military/defense satellites.

Loading next visibility...
Identifier
24725, 1997-006A
Orbit
LEO
Country
Flag of CISCIS
Related business
Manufacturer
NPO PM
Mission
Non-operational Defense Communications
Bus & Motor
STRELA-3, Unknown motor
Mass
225 kg wet, 225 kg dry
Launch date (UTC)
1997-02-14 (29 years ago)
Launch vehicle
TSIKLON-3
Launch site
Plesetsk Missile And Space Complex (PKMTR)
Object type
Payload
Rocket body
Debris
Shape & HBR
Cyl + 1 Ant, 3.5 m
Radar Cross Section
1.583 m², Medium (>0.1 m² and < 1m²)

Expand to show TLE details & history
Last TLE update: 7 hours ago

TLE from 7 hours ago
0 COSMOS 2337
1 24725U 97006A   26038.28855223  .00000046  00000-0  20308-3 0  9992
2 24725  82.6123   2.4743 0010217  59.8772 300.3330 12.60721851333489
Epoch: 2026-02-07T06:55Z
TLE epoch observation values (Epoch: 2026-02-07T06:55:30.912Z)
Latitude
Longitude
121.18128°
Altitude
1,418.676 km
Speed
7.153 km/s
True Right ascension
00h 09m 53s
True Declination
0° 00' 00"
Sunlit
Object was in daylight at epoch
Visualization orbit readout
Latitude
Unknown
Longitude
Unknown
Altitude
Unknown
Speed
Unknown
Apparent Right ascension
Unknown
Apparent Declination
Unknown
Sunlit
N/A
Visualization observer readout
Local Sidereal Time
15:40:59
Azimuth
Unknown
Elevation
Unknown
Doppler factor
Unknown
Orbital elements
Apogee altitude
1,425.253 km
Perigee altitude
1,409.323 km
Semi-major axis
7,795.425 km
Eccentricity
0.00102
Inclination
82.6123°
RAAN
2.4743°
Arg. of periapsis
59.8772°
True anomaly
300.23188°
Mean anomaly
300.333°
Eccentric anomaly
300.28245°
Mean motion
3.15343 °/min
Orbital period
114.16 mins
BSTAR
0.00020308
Loading maneuver chart data...
Computing Atmospheric mass density...
Loading historical data...
Loading historical data...
Loading historical data...
Loading historical data...
Loading historical data...
Loading historical data...
Loading historical data...

Documentation

Showing up to 5 results
|